Time,TemperatureF,DewpointF,PressureIn,WindDirection,WindDirectionDegrees,WindSpeedMPH,WindSpeedGustMPH,Humidity,HourlyPrecipIn,Conditions,Clouds,dailyrainin,SoftwareType,DateUTC
2015-01-28 00:23:00,17.0,13.0,-100.00,West,275,1.0,3.0,83,0.00,,,-99.99,,2015-01-28 05:23:00,
2015-01-28 00:52:00,16.0,13.0,-100.00,ESE,115,2.0,3.0,85,0.00,,,-99.99,,2015-01-28 05:52:00,
2015-01-28 01:22:00,15.0,11.0,-100.00,SW,220,1.0,2.0,85,0.00,,,-99.99,,2015-01-28 06:22:00,
2015-01-28 01:52:00,15.0,12.0,-100.00,WSW,240,1.0,1.0,87,0.00,,,-99.99,,2015-01-28 06:52:00,
2015-01-28 02:23:00,15.0,11.0,-100.00,North,355,0.0,1.0,87,0.00,,,-99.99,,2015-01-28 07:23:00,
2015-01-28 02:52:00,14.0,11.0,-100.00,ESE,110,0.0,1.0,88,0.00,,,-99.99,,2015-01-28 07:52:00,
2015-01-28 03:22:00,14.0,11.0,-100.00,North,350,0.0,1.0,88,0.00,,,-99.99,,2015-01-28 08:22:00,
2015-01-28 03:42:00,13.0,10.0,-100.00,WSW,250,1.0,3.0,87,0.00,,,-99.99,,2015-01-28 08:42:00,
2015-01-28 03:52:00,14.0,11.0,-100.00,SW,220,0.0,2.0,87,0.00,,,-99.99,,2015-01-28 08:52:00,
2015-01-28 04:03:00,14.0,11.0,-100.00,SW,220,0.0,2.0,87,0.00,,,-99.99,,2015-01-28 09:03:00,
2015-01-28 04:22:00,14.0,10.0,-100.00,SSW,210,0.0,2.0,87,0.00,,,-99.99,,2015-01-28 09:22:00,
2015-01-28 04:53:00,13.0,10.0,-100.00,SW,225,1.0,2.0,87,0.00,,,-99.99,,2015-01-28 09:53:00,
2015-01-28 05:23:00,13.0,10.0,-100.00,South,185,0.0,4.0,85,0.00,,,-99.99,,2015-01-28 10:23:00,
2015-01-28 05:53:00,13.0,10.0,-100.00,SW,235,2.0,6.0,85,0.00,,,-99.99,,2015-01-28 10:53:00,
2015-01-28 06:22:00,13.0,9.0,-100.00,SW,215,3.0,6.0,83,0.00,,,-99.99,,2015-01-28 11:22:00,
2015-01-28 06:52:00,14.0,9.0,-100.00,SSW,205,3.0,9.0,83,0.00,,,-99.99,,2015-01-28 11:52:00,
2015-01-28 07:22:00,13.0,9.0,-100.00,ESE,105,0.0,8.0,83,0.00,,,-99.99,,2015-01-28 12:22:00,
2015-01-28 07:52:00,13.0,9.0,-100.00,NNE,25,2.0,5.0,85,0.00,,,-99.99,,2015-01-28 12:52:00,
2015-01-28 08:22:00,13.0,10.0,-100.00,ESE,110,1.0,6.0,86,0.00,,,-99.99,,2015-01-28 13:22:00,
2015-01-28 08:52:00,13.0,10.0,-100.00,SSE,150,0.0,4.0,86,0.00,,,-99.99,,2015-01-28 13:52:00,
2015-01-28 09:22:00,14.0,10.0,-100.00,North,0,2.0,5.0,84,0.00,,,-99.99,,2015-01-28 14:22:00,
2015-01-28 09:52:00,17.0,13.0,-100.00,NNE,25,2.0,6.0,83,0.00,,,-99.99,,2015-01-28 14:52:00,
2015-01-28 10:22:00,20.0,14.0,-100.00,North,10,2.0,5.0,78,0.00,,,-99.99,,2015-01-28 15:22:00,